Barter Island, AK

6:10 PM AKDT on August 21, 2017 (GMT -0800)
Barter Island LRRS

Weather History for PABA - November, 2013

Change the Weather History Date:

Thursday, November 7, 2013

  Actual Average Record
Temperature  
Mean Temperature 10 °F -  
Max Temperature 12 °F 11 °F 30 °F (2003)
Min Temperature 9 °F 2 °F -16 °F (2004)
Degree Days  
Heating Degree Days 54    
Moisture  
Dew Point 8 °F    
Average Humidity 89    
Maximum Humidity 92    
Minimum Humidity 84    
Precipitation  
Precipitation 0.00 in - - ()
Sea Level Pressure  
Sea Level Pressure 30.17 in    
Wind  
Wind Speed 24 mph (East)    
Max Wind Speed 31 mph    
Max Gust Speed 34 mph    
Visibility 6 miles    
Events Snow    
Averages and records for this station are not official NWS values.
T = Trace of Precipitation, MM = Missing Value Source: NWS Daily Summary

Daily Weather History Graph

Daily Weather History Graph

Search for Another Location

Airport or City:

Trip Planner

Search our weather history database for the weather conditions in past years. The results will help you decide how hot, cold, wet, or windy it might be!

Date:

Astronomy

Nov. 07, 2013 Rise Set
Actual Time 9:40 AM AKST 2:53 PM AKST
Civil Twilight 8:17 AM AKST 4:17 PM AKST
Nautical Twilight 6:59 AM AKST 5:35 PM AKST
Astronomical Twilight 5:47 AM AKST 6:46 PM AKST
Moon 2:41 PM AKST (11/7) 6:38 PM AKST (11/7)
Length of Visible Light 8h 00m
Length of Day
5h 12m
Waxing Crescent, 24% of the Moon is Illuminated
Nov 7
Waxing Crescent
Nov 9
First Quarter
Nov 17
Full
Nov 25
Last Quarter
Dec 2
New

Hourly Weather History & Observations

Time (AKST) Temp. Windchill Dew Point Humidity Pressure Visibility Wind Dir Wind Speed Gust Speed Precip Events Conditions
12:01 AM 10.9 °F -7.9 °F 8.1 °F 88% 30.37 in 5.0 mi East 20.7 mph - 0.00 in Snow Light Snow
1:01 AM 10.0 °F -8.6 °F 7.0 °F 87% 30.35 in 9.0 mi East 19.6 mph - 0.00 in Snow Light Snow
2:01 AM 10.0 °F -9.5 °F 6.1 °F 84% 30.33 in 10.0 mi East 21.9 mph - 0.00 in   Overcast
2:45 AM 10.4 °F -8.6 °F 6.8 °F 85% 30.31 in 10.0 mi East 20.7 mph - 0.00 in   Scattered Clouds
3:01 AM 9.0 °F -11.0 °F 6.1 °F 88% 30.31 in 10.0 mi East 21.9 mph - 0.00 in   Clear
3:41 AM 10.4 °F -8.6 °F 6.8 °F 85% 30.30 in 10.0 mi East 20.7 mph - N/A   Mostly Cloudy
4:01 AM 10.0 °F -10.0 °F 7.0 °F 87% 30.30 in 10.0 mi East 23.0 mph - N/A   Overcast
5:01 AM 10.9 °F -8.3 °F 8.1 °F 88% 30.28 in 9.0 mi East 21.9 mph - 0.00 in Snow Light Snow
6:01 AM 12.0 °F -7.7 °F 9.0 °F 88% 30.26 in 3.0 mi East 24.2 mph - 0.00 in Snow Light Snow
6:08 AM 10.4 °F -9.5 °F 8.6 °F 92% 30.25 in 2.5 mi East 23.0 mph - 0.00 in Snow Light Snow
6:19 AM 10.4 °F -10.3 °F 8.6 °F 92% 30.25 in 2.5 mi East 25.3 mph - 0.00 in Snow Light Snow
6:32 AM 10.4 °F -9.5 °F 8.6 °F 92% 30.25 in 3.0 mi East 23.0 mph - 0.00 in Snow Light Snow
7:01 AM 10.9 °F -9.6 °F 8.1 °F 88% 30.24 in 5.0 mi East 25.3 mph - 0.00 in Snow Light Snow
8:01 AM 10.0 °F -10.8 °F 8.1 °F 92% 30.21 in 5.0 mi East 25.3 mph - 0.00 in Snow Light Snow
8:28 AM 10.4 °F -11.0 °F 8.6 °F 92% 30.20 in 3.0 mi ESE 27.6 mph - 0.00 in Snow Light Snow
8:43 AM 10.4 °F -11.4 °F 8.6 °F 92% 30.19 in 2.5 mi East 28.8 mph - 0.00 in Snow Light Snow
8:53 AM 10.4 °F -10.3 °F 8.6 °F 92% 30.19 in 3.0 mi East 25.3 mph - 0.00 in Snow Light Snow
9:01 AM 10.4 °F -11.7 °F 8.6 °F 92% 30.18 in 2.0 mi East 29.9 mph - 0.00 in Snow Light Snow
9:08 AM 10.4 °F -10.7 °F 8.6 °F 92% 30.18 in 1.5 mi ESE 26.5 mph - 0.00 in Snow Light Snow
9:20 AM 10.4 °F -12.0 °F 8.6 °F 92% 30.17 in 1.2 mi ESE 31.1 mph - 0.00 in Snow Light Snow
9:30 AM 12.2 °F -8.9 °F 8.6 °F 85% 30.17 in 1.0 mi ESE 28.8 mph - 0.00 in Snow Light Snow
9:38 AM 10.4 °F -11.7 °F 8.6 °F 92% 30.17 in 1.5 mi East 29.9 mph 34.5 mph 0.00 in Snow Light Snow
9:50 AM 10.4 °F -11.4 °F 8.6 °F 92% 30.16 in 1.5 mi East 28.8 mph - 0.00 in Snow Light Snow
9:59 AM 10.4 °F -11.0 °F 8.6 °F 92% 30.16 in 1.2 mi East 27.6 mph 32.2 mph 0.00 in Snow Light Snow
10:01 AM 10.9 °F -10.6 °F 9.0 °F 92% 30.16 in 1.5 mi East 28.8 mph 32.2 mph 0.00 in Snow Light Snow
10:25 AM 10.4 °F -11.0 °F 8.6 °F 92% 30.15 in 2.0 mi East 27.6 mph - 0.00 in Snow Light Snow
10:35 AM 10.4 °F -10.7 °F 8.6 °F 92% 30.15 in 2.5 mi East 26.5 mph - 0.00 in Snow Light Snow
10:43 AM 10.4 °F -11.4 °F 8.6 °F 92% 30.14 in 3.0 mi East 28.8 mph - 0.00 in Snow Light Snow
11:01 AM 10.9 °F -11.0 °F 8.1 °F 88% 30.13 in 3.0 mi East 29.9 mph - 0.00 in Snow Light Snow
12:01 PM 10.9 °F -10.3 °F 8.1 °F 88% 30.12 in 6.0 mi East 27.6 mph - 0.00 in   Clear
1:01 PM 10.9 °F -9.2 °F 8.1 °F 88% 30.10 in 6.0 mi East 24.2 mph - N/A   Clear
2:01 PM 12.0 °F -7.7 °F 9.0 °F 88% 30.09 in 8.0 mi East 24.2 mph - N/A   Clear
3:01 PM 12.0 °F -7.7 °F 8.1 °F 84% 30.06 in 9.0 mi East 24.2 mph - N/A   Clear
4:01 PM 12.0 °F -9.2 °F 9.0 °F 88% 30.05 in 9.0 mi East 28.8 mph - N/A   Clear
5:01 PM 12.0 °F -9.2 °F 9.0 °F 88% 30.04 in 9.0 mi East 28.8 mph - N/A   Clear
6:01 PM 12.0 °F -9.5 °F 8.1 °F 84% 30.02 in 10.0 mi East 29.9 mph - N/A   Clear
7:01 PM 10.9 °F -10.3 °F 8.1 °F 88% 30.01 in 10.0 mi East 27.6 mph - N/A   Clear
8:01 PM 12.0 °F -9.2 °F 8.1 °F 84% 29.99 in 10.0 mi East 28.8 mph - N/A   Clear
9:01 PM 12.0 °F -7.7 °F 9.0 °F 88% 29.99 in 10.0 mi East 24.2 mph - N/A   Clear
10:01 PM 12.0 °F -8.8 °F 9.0 °F 88% 29.99 in 10.0 mi East 27.6 mph - N/A   Clear
11:01 PM 12.0 °F -9.2 °F 9.0 °F 88% 29.99 in 10.0 mi East 28.8 mph - N/A   Clear